| time (UTC) | temp F | wind direction | speed MPH | gust MPH | rain 1hr in | rain 24hr in | rain mn in | humidity % | barometer mb |
| 20260902193016 | 69 | 135 | 5.0 | 15.0 | 0.00 | 0.67 | 0.42 | 90 | 1019.2 |
| 20260902190016 | 69 | 135 | 7.0 | 16.0 | 0.00 | 0.67 | 0.42 | 90 | 1019.0 |
| 20260902183016 | 69 | 113 | 5.0 | 14.0 | 0.00 | 0.67 | 0.42 | 93 | 1019.3 |
| 20260902180017 | 67 | 113 | 2.0 | 10.0 | 0.00 | 0.67 | 0.42 | 95 | 1019.7 |
| 20260902173016 | 67 | 113 | 1.0 | 11.0 | 0.02 | 0.67 | 0.42 | 95 | 1019.9 |
| 20260902170016 | 66 | 113 | 1.0 | 7.0 | 0.08 | 0.67 | 0.42 | 96 | 1019.8 |
| 20260902163016 | 65 | 113 | 1.0 | 8.0 | 0.40 | 0.65 | 0.40 | 96 | 1019.8 |
| 20260902160016 | 65 | 0.0 | 4.0 | 0.34 | 0.59 | 0.34 | 95 | 1020.5 | |
| 20260902153016 | 66 | 135 | 2.0 | 10.0 | 0.00 | 0.25 | 0.00 | 94 | 1020.4 |
| 20260902150016 | 66 | 113 | 4.0 | 11.0 | 0.00 | 0.25 | 0.00 | 95 | 1019.6 |
| 20260902143016 | 66 | 135 | 5.0 | 13.0 | 0.00 | 0.25 | 0.00 | 95 | 1019.7 |
| 20260902140016 | 66 | 113 | 4.0 | 13.0 | 0.00 | 0.25 | 0.00 | 96 | 1020.1 |
| 20260902133017 | 67 | 0.0 | 4.0 | 0.00 | 0.25 | 0.00 | 96 | 1019.9 | |
| 20260902130016 | 67 | 0.0 | 10.0 | 0.00 | 0.25 | 0.00 | 96 | 1020.0 | |
| 20260902123016 | 68 | 113 | 2.0 | 9.0 | 0.00 | 0.25 | 0.00 | 96 | 1019.3 |
| 20260902120016 | 68 | 135 | 1.0 | 7.0 | 0.00 | 0.25 | 0.00 | 97 | 1019.3 |
| 20260902113016 | 68 | 113 | 2.0 | 8.0 | 0.00 | 0.26 | 0.00 | 97 | 1019.2 |
| 20260902110017 | 68 | 0.0 | 0.0 | 0.00 | 0.46 | 0.00 | 97 | 1019.5 | |
| 20260902103015 | 68 | 0.0 | 0.0 | 0.00 | 0.47 | 0.00 | 97 | 1019.9 | |
| 20260902100016 | 68 | 0.0 | 0.0 | 0.00 | 0.47 | 0.00 | 97 | 1019.8 | |
| 20260902093036 | 68 | 0.0 | 0.0 | 0.00 | 0.47 | 0.00 | 97 | 1019.6 | |
| 20260902090015 | 69 | 0.0 | 0.0 | 0.00 | 0.51 | 0.00 | 97 | 1019.3 | |
| 20260902083015 | 69 | 0.0 | 0.0 | 0.00 | 0.52 | 0.00 | 97 | 1019.2 | |
| 20260902080015 | 69 | 0.0 | 0.0 | 0.00 | 0.53 | 0.00 | 97 | 1018.9 | |
| 20260902073015 | 69 | 0.0 | 0.0 | 0.00 | 0.53 | 0.00 | 97 | 1018.8 | |
| 20260902070058 | 69 | 0.0 | 0.0 | 0.00 | 0.53 | 0.00 | 97 | 1019.0 | |
| 20260902063017 | 69 | 0.0 | 0.0 | 0.00 | 0.53 | 0.00 | 97 | 1019.3 | |
| 20260902060017 | 68 | 0.0 | 0.0 | 0.00 | 0.53 | 0.00 | 97 | 1019.1 | |
| 20260902053039 | 68 | 0.0 | 0.0 | 0.00 | 0.53 | 0.00 | 97 | 1019.1 | |
| 20260902050017 | 68 | 0.0 | 0.0 | 0.00 | 0.53 | 0.00 | 96 | 1018.9 | |
| 20260902043017 | 67 | 0.0 | 0.0 | 0.00 | 0.53 | 0.00 | 96 | 1018.3 | |
| 20260902040017 | 68 | 0.0 | 0.0 | 0.00 | 0.53 | 0.53 | 96 | 1018.0 | |
| 20260902033017 | 68 | 0.0 | 0.0 | 0.00 | 0.53 | 0.53 | 96 | 1017.9 | |
| 20260902030037 | 68 | 0.0 | 0.0 | 0.00 | 0.54 | 0.53 | 96 | 1018.1 | |
| 20260902023017 | 68 | 0.0 | 0.0 | 0.00 | 0.55 | 0.53 | 96 | 1018.0 | |
| 20260902020019 | 68 | 0.0 | 0.0 | 0.00 | 0.55 | 0.53 | 95 | 1018.0 | |
| 20260902013017 | 69 | 0.0 | 0.0 | 0.00 | 0.56 | 0.53 | 95 | 1017.7 | |
| 20260902010016 | 69 | 0.0 | 0.0 | 0.00 | 0.58 | 0.53 | 95 | 1017.5 | |
| 20260902003017 | 69 | 0.0 | 0.0 | 0.00 | 0.59 | 0.53 | 94 | 1017.2 | |
| 20260902000017 | 70 | 0.0 | 0.0 | 0.00 | 0.60 | 0.53 | 93 | 1016.7 | |
| 20260901233017 | 71 | 0.0 | 0.0 | 0.00 | 0.60 | 0.53 | 93 | 1016.8 | |
| 20260901230016 | 72 | 0.0 | 0.0 | 0.25 | 0.61 | 0.53 | 92 | 1016.9 | |
| 20260901223016 | 74 | 0.0 | 3.0 | 0.25 | 0.61 | 0.53 | 89 | 1016.7 | |
| 20260901220016 | 77 | 0.0 | 0.0 | 0.00 | 0.36 | 0.28 | 87 | 1016.8 | |
| 20260901213016 | 76 | 0.0 | 2.0 | 0.00 | 0.36 | 0.28 | 87 | 1016.7 | |
| 20260901210016 | 77 | 0.0 | 3.0 | 0.00 | 0.36 | 0.28 | 86 | 1016.7 | |
| 20260901203056 | 76 | 0.0 | 2.0 | 0.00 | 0.36 | 0.28 | 87 | 1016.9 | |
| 20260901200038 | 76 | 0.0 | 3.0 | 0.00 | 0.36 | 0.28 | 89 | 1016.9 |